Regional Weather Roundup
Issued by NWS

Home | Current Version | Previous Version | Graphics & Text | Print | Product List | Glossary On
Versions: 1 2 3 4 5 6 7 8 9 10 11 12 13 14 15 16 17 18 19 20 21 22 23 24 25 26 27 28 29 30 31 32 33 34 35 36 37 38 39 40 41 42 43 44 45 46 47 48 49 50
000
ASUS43 KLSX 040410
RWRMO

WEATHER SUMMARY FOR MISSOURI
NATIONAL WEATHER SERVICE SPRINGFIELD MO
1100 PM CDT MON AUG 03 2015

NOTE: "FAIR" INDICATES FEW OR NO CLOUDS BELOW 12,000 FEET WITH NO
       SIGNIFICANT WEATHER AND/OR OBSTRUCTIONS TO VISIBILITY.
       CURRENT SKY AND/OR WEATHER CONDITIONS ARE NOT AVAILABLE FOR
       CHILLICOTHE AND FARMINGTON.

MOZ001>031-035>038-043-044-053-054-040500-
...NORTHERN AND WESTERN MISSOURI...

CITY           SKY/WX    TMP DP  RH WIND       PRES   REMARKS
KANSAS CTY INT PTCLDY    76  68  76 E7        29.95R
KANSAS C DTWN  PTCLDY    78  70  76 E6        29.93R
LEE`S SUMMIT   PTCLDY    77  69  76 E9        29.95R
ST JOSEPH      PTCLDY    75  68  78 E5        29.95R
CHILLICOTHE      N/A     74  70  87 CALM      29.97R
KIRKSVILLE     PTCLDY    69  65  86 CALM      29.98R

$$
MOZ066>068-077>081-088>096-101>105-040500-
...SOUTHWEST MISSOURI...

CITY           SKY/WX    TMP DP  RH WIND       PRES   REMARKS
SPRINGFIELD    PTCLDY    76  67  73 SW6       29.97S
JOPLIN         MOCLDY    76  67  73 S3        29.96R

$$
MOZ032>034-039>042-045>050-055>058-069>072-040500-
...CENTRAL MISSOURI...

CITY           SKY/WX    TMP DP  RH WIND       PRES   REMARKS
COLUMBIA       PTCLDY    77  70  79 NE6       29.96R
JEFFERSON CITY PTCLDY    76  71  85 CALM      29.93R
ROLLA          CLEAR     73  69  87 SE3       29.96R
SEDALIA        PTCLDY    78  71  79 E5        29.96R
WHITEMAN AFB   MOCLDY    77  71  81 E5        29.93R
WARRENSBURG    MOCLDY    75  70  83 CALM      29.94R
OSAGE BEACH    CLEAR     75  72  88 CALM      29.96R

$$
MOZ051-052-059>065-040500-
...EAST CENTRAL MISSOURI...

CITY           SKY/WX    TMP DP  RH WIND       PRES   REMARKS
ST LOUIS INTL  MOCLDY    82  68  62 NE5       29.95R
SPIRIT OF STL  CLEAR     75  72  90 CALM      29.93R
ST CHARLES     PTCLDY    78  69  73 CALM      29.93S

$$
MOZ072>076-082>087-097>100-106>115-040500-
...SOUTH CENTRAL AND SOUTHEAST MISSOURI...

CITY           SKY/WX    TMP DP  RH WIND       PRES   REMARKS
CAPE GIRARDEAU CLEAR     77  74  90 CALM      29.92S
FARMINGTON     CLEAR     75  72  88 CALM      30.00S
POPLAR BLUFF   CLEAR     78  75  90 CALM      29.92R
WEST PLAINS    CLEAR     75  70  84 CALM      30.00R

$$


USA.gov is the U.S. government's official web portal to all federal, state and local government web resources and services.